Location: Newark
(43.4306°N, 0.3089°E)
Time: 00:06:49
(UTC+00:00)

Vanguard 3 - Pass Details

Date: 01 September 2019
Orbit: 508 x 3263 km, 33.4° (Epoch: 14 September)

Event Time Altitude Azimuth Distance (km) Brightness Sun altitude
Rises 14:58:52 0° 248° (WSW) 6,590 12.7 37.3°
Reaches altitude 10° 15:04:01 10° 244° (WSW) 5,197 12.6 36.5°
Maximum altitude 15:16:51 46° 178° (S) 2,153 10.0 34.4°
Drops below altitude 10° 15:24:19 10° 108° (ESE) 3,077 9.8 33.2°
Sets 15:26:36 0° 101° (ESE) 3,764 10.1 32.8°
